This demonstration page uses our WeatherBlox Daily Observations layout. Learn more.

Left ArrowRight Arrow

53.62937, 11.41316

Hourly Observations for March 28, 2021

Temp ( °F °C ) Dew Point ( °F °C ) Humidity (%) Winds ( mph kmh ) Pressure ( in mb ) Visibility ( mi km ) Precip ( " mm )
7:50 am 07:50 Mostly Sunny 37 3 32 0 81 81 S 9 15 30.21 1023 7 11 N/A
8:20 am 08:20 Mostly Sunny 37 3 34 1 87 87 S 10 17 30.21 1023 7 11 N/A
8:50 am 08:50 Mostly Sunny 39 4 34 1 81 81 S 9 15 30.21 1023 7 11 N/A
9:20 am 09:20 Mostly Sunny 41 5 34 1 76 76 S 10 17 30.21 1023 7 11 N/A
9:50 am 09:50 Mostly Sunny 41 5 34 1 76 76 S 12 19 30.21 1023 7 11 N/A
10:20 am 10:20 Mostly Sunny 43 6 34 1 71 71 S 10 17 30.21 1023 7 11 N/A
10:50 am 10:50 Mostly Sunny 45 7 36 2 71 71 S 12 19 30.21 1023 7 11 N/A
11:20 am 11:20 Mostly Sunny 46 8 37 3 71 71 S 12 19 30.21 1023 7 11 N/A
11:50 am 11:50 Mostly Sunny 48 9 37 3 66 66 S 13 20 30.18 1022 7 11 N/A
12:20 pm 12:20 Mostly Sunny 50 10 39 4 67 67 S 14 22 30.18 1022 30 48 N/A
12:50 pm 12:50 Mostly Sunny 52 11 37 3 58 58 SSW 17 28 30.18 1022 30 48 N/A
1:20 pm 13:20 Partly Cloudy 52 11 39 4 62 62 SSW 17 28 30.18 1022 30 48 N/A
1:50 pm 13:50 Partly Cloudy 52 11 37 3 58 58 SSW 16 26 30.18 1022 30 48 N/A
2:20 pm 14:20 Partly Cloudy 52 11 39 4 62 62 SSW 18 30 30.18 1022 30 48 N/A
2:50 pm 14:50 Partly Cloudy with Light Showers 52 11 39 4 62 62 SSW 17 28 30.18 1022 30 48 N/A
3:20 pm 15:20 Mostly Cloudy with Light Showers 50 10 41 5 71 71 SSW 13 20 30.18 1022 30 48 N/A
3:50 pm 15:50 Mostly Cloudy with Light Showers 50 10 43 6 76 76 SSW 12 19 30.18 1022 30 48 N/A
4:20 pm 16:20 Mostly Cloudy with Light Showers 50 10 45 7 82 82 SSW 13 20 30.18 1022 30 48 N/A
4:50 pm 16:50 Mostly Cloudy with Light Showers 50 10 45 7 82 82 S 14 22 30.18 1022 30 48 N/A
5:20 pm 17:20 Mostly Cloudy with Light Showers 50 10 45 7 82 82 SSW 15 24 30.18 1022 30 48 N/A
5:50 pm 17:50 Mostly Cloudy with Light Showers 48 9 43 6 82 82 SSW 15 24 30.18 1022 30 48 N/A
6:20 pm 18:20 Mostly Cloudy with Drizzle 48 9 43 6 82 82 SSW 15 24 30.18 1022 30 48 N/A
6:50 pm 18:50 Mostly Cloudy with Drizzle 48 9 45 7 87 87 SSW 13 20 30.18 1022 30 48 N/A
7:20 pm 19:20 Mostly Cloudy with Drizzle 46 8 45 7 93 93 SSW 12 19 30.18 1022 4 6 N/A
7:50 pm 19:50 Mostly Cloudy with Drizzle 46 8 45 7 93 93 SSW 13 20 30.18 1022 4 6 N/A
8:20 pm 20:20 Mostly Cloudy with Drizzle 46 8 45 7 93 93 SSW 14 22 30.18 1022 4 6 N/A
8:50 pm 20:50 Mostly Cloudy 46 8 45 7 93 93 SSW 14 22 30.18 1022 30 48 N/A
9:20 pm 21:20 Mostly Cloudy 46 8 45 7 93 93 SSW 14 22 30.18 1022 30 48 N/A
9:50 pm 21:50 Mostly Cloudy 48 9 45 7 87 87 SSW 15 24 30.18 1022 30 48 N/A

Powered by AerisWeather